Time,TemperatureF,DewpointF,PressureIn,WindDirection,WindDirectionDegrees,WindSpeedMPH,WindSpeedGustMPH,Humidity,HourlyPrecipIn,Conditions,Clouds,dailyrainin,SoftwareType,DateUTC
2013-11-01 00:02:00,57.0,45.0,29.32,North,0,0.0,0.0,64,0.00,,BKN,0.00,VWS V14.01,2013-11-01 05:02:00,
2013-11-01 00:07:00,56.8,44.8,29.32,North,0,0.0,0.0,64,0.00,,BKN,0.00,VWS V14.01,2013-11-01 05:07:00,
2013-11-01 00:12:00,56.7,45.0,29.32,North,0,0.0,0.0,65,0.00,,BKN,0.00,VWS V14.01,2013-11-01 05:12:00,
2013-11-01 00:18:00,56.3,44.7,29.32,North,0,0.0,0.0,65,0.00,,BKN,0.00,VWS V14.01,2013-11-01 05:18:00,
2013-11-01 00:23:00,56.3,44.7,29.32,North,0,0.0,0.0,65,0.00,,BKN,0.00,VWS V14.01,2013-11-01 05:23:00,
2013-11-01 00:28:00,56.1,44.9,29.32,North,0,0.0,0.0,66,0.00,,BKN,0.00,VWS V14.01,2013-11-01 05:28:00,
2013-11-01 00:33:00,55.9,44.8,29.32,North,0,0.0,0.0,66,0.00,,BKN,0.00,VWS V14.01,2013-11-01 05:33:00,
2013-11-01 00:38:00,55.8,44.6,29.32,North,0,0.0,0.0,66,0.00,,BKN,0.00,VWS V14.01,2013-11-01 05:38:00,
2013-11-01 00:43:00,55.6,44.8,29.32,North,0,0.0,0.0,67,0.00,,BKN,0.00,VWS V14.01,2013-11-01 05:43:00,
2013-11-01 00:45:00,55.4,44.6,29.32,North,0,0.0,0.0,67,0.00,,BKN,0.00,VWS V14.01,2013-11-01 05:45:00,
2013-11-01 00:50:00,55.2,44.9,29.32,North,0,0.0,0.0,68,0.00,,BKN,0.00,VWS V14.01,2013-11-01 05:50:00,
2013-11-01 00:55:00,55.2,44.9,29.32,North,0,0.0,0.0,68,0.00,,BKN,0.00,VWS V14.01,2013-11-01 05:55:00,
2013-11-01 01:01:00,55.2,44.9,29.32,North,0,0.0,0.0,68,0.00,,BKN,0.00,VWS V14.01,2013-11-01 06:01:00,
2013-11-01 01:06:00,55.0,44.7,29.32,North,0,0.0,0.0,68,0.00,,BKN,0.00,VWS V14.01,2013-11-01 06:06:00,
2013-11-01 01:11:00,54.9,44.5,29.32,North,0,0.0,0.0,68,0.00,,BKN,0.00,VWS V14.01,2013-11-01 06:11:00,
2013-11-01 01:16:00,54.9,44.9,29.32,North,0,0.0,0.0,69,0.00,,BKN,0.00,VWS V14.01,2013-11-01 06:16:00,
2013-11-01 01:21:00,54.7,44.7,29.32,North,0,0.0,0.0,69,0.00,,BKN,0.00,VWS V14.01,2013-11-01 06:21:00,
2013-11-01 01:26:00,54.5,44.5,29.32,North,0,0.0,0.0,69,0.00,,BKN,0.00,VWS V14.01,2013-11-01 06:26:00,
2013-11-01 01:31:00,54.5,44.5,29.32,North,0,0.0,0.0,69,0.00,,BKN,0.00,VWS V14.01,2013-11-01 06:31:00,
2013-11-01 01:36:00,54.3,44.8,29.32,North,0,0.0,0.0,70,0.00,,BKN,0.00,VWS V14.01,2013-11-01 06:36:00,
2013-11-01 01:42:00,54.3,44.8,29.32,North,0,0.0,0.0,70,0.00,,BKN,0.00,VWS V14.01,2013-11-01 06:42:00,
2013-11-01 01:47:00,54.1,44.6,29.32,North,0,0.0,0.0,70,0.00,,BKN,0.00,VWS V14.01,2013-11-01 06:47:00,
2013-11-01 01:52:00,54.0,44.4,29.32,North,0,0.0,0.0,70,0.00,,BKN,0.00,VWS V14.01,2013-11-01 06:52:00,
2013-11-01 01:57:00,54.0,44.8,29.32,North,0,0.0,0.0,71,0.00,,BKN,0.00,VWS V14.01,2013-11-01 06:57:00,
2013-11-01 02:02:00,53.8,44.6,29.32,North,0,0.0,0.0,71,0.00,,BKN,0.00,VWS V14.01,2013-11-01 07:02:00,
2013-11-01 02:07:00,53.8,44.6,29.32,North,0,0.0,0.0,71,0.00,,BKN,0.00,VWS V14.01,2013-11-01 07:07:00,
2013-11-01 02:12:00,53.6,44.4,29.32,North,0,0.0,0.0,71,0.00,,BKN,0.00,VWS V14.01,2013-11-01 07:12:00,
2013-11-01 02:18:00,53.6,44.4,29.32,North,0,0.0,0.0,71,0.00,,BKN,0.00,VWS V14.01,2013-11-01 07:18:00,
2013-11-01 02:23:00,53.4,44.3,29.29,North,0,0.0,0.0,71,0.00,,BKN,0.00,VWS V14.01,2013-11-01 07:23:00,
2013-11-01 02:28:00,53.4,44.6,29.29,North,0,0.0,0.0,72,0.00,,BKN,0.00,VWS V14.01,2013-11-01 07:28:00,
2013-11-01 02:33:00,53.4,44.6,29.29,North,0,0.0,0.0,72,0.00,,BKN,0.00,VWS V14.01,2013-11-01 07:33:00,
2013-11-01 02:38:00,53.2,44.5,29.29,North,0,0.0,0.0,72,0.00,,BKN,0.00,VWS V14.01,2013-11-01 07:38:00,
2013-11-01 02:43:00,53.2,44.5,29.29,North,0,0.0,0.0,72,0.00,,BKN,0.00,VWS V14.01,2013-11-01 07:43:00,
2013-11-01 02:48:00,53.1,44.3,29.29,North,0,0.0,0.0,72,0.00,,BKN,0.00,VWS V14.01,2013-11-01 07:48:00,
2013-11-01 02:53:00,53.1,44.3,29.29,North,0,0.0,0.0,72,0.00,,BKN,0.00,VWS V14.01,2013-11-01 07:53:00,
2013-11-01 02:58:00,53.1,44.3,29.29,North,0,0.0,0.0,72,0.00,,BKN,0.00,VWS V14.01,2013-11-01 07:58:00,
2013-11-01 03:04:00,53.1,44.3,29.29,North,0,0.0,0.0,72,0.00,,BKN,0.00,VWS V14.01,2013-11-01 08:04:00,
2013-11-01 03:09:00,52.9,44.1,29.29,North,0,0.0,0.0,72,0.00,,BKN,0.00,VWS V14.01,2013-11-01 08:09:00,
2013-11-01 03:14:00,52.7,43.9,29.29,North,0,0.0,0.0,72,0.00,,BKN,0.00,VWS V14.01,2013-11-01 08:14:00,
2013-11-01 03:19:00,52.7,43.9,29.29,North,0,0.0,0.0,72,0.00,,BKN,0.00,VWS V14.01,2013-11-01 08:19:00,
2013-11-01 03:24:00,52.5,44.1,29.29,North,0,0.0,0.0,73,0.00,,BKN,0.00,VWS V14.01,2013-11-01 08:24:00,
2013-11-01 03:29:00,52.5,44.1,29.29,North,0,0.0,0.0,73,0.00,,BKN,0.00,VWS V14.01,2013-11-01 08:29:00,
2013-11-01 03:34:00,52.3,44.0,29.29,North,0,0.0,0.0,73,0.00,,BKN,0.00,VWS V14.01,2013-11-01 08:34:00,
2013-11-01 03:39:00,52.3,44.0,29.29,North,0,0.0,0.0,73,0.00,,BKN,0.00,VWS V14.01,2013-11-01 08:39:00,
2013-11-01 03:44:00,52.2,43.8,29.29,North,0,0.0,0.0,73,0.00,,BKN,0.00,VWS V14.01,2013-11-01 08:44:00,
2013-11-01 03:49:00,52.0,43.6,29.29,North,0,0.0,0.0,73,0.00,,BKN,0.00,VWS V14.01,2013-11-01 08:49:00,
2013-11-01 03:54:00,52.0,43.6,29.29,North,0,0.0,0.0,73,0.00,,BKN,0.00,VWS V14.01,2013-11-01 08:54:00,
2013-11-01 03:59:00,52.0,43.6,29.29,North,0,0.0,0.0,73,0.00,,BKN,0.00,VWS V14.01,2013-11-01 08:59:00,
2013-11-01 04:05:00,51.8,43.4,29.29,North,0,0.0,0.0,73,0.00,,BKN,0.00,VWS V14.01,2013-11-01 09:05:00,
2013-11-01 04:10:00,51.8,43.4,29.29,North,0,0.0,0.0,73,0.00,,BKN,0.00,VWS V14.01,2013-11-01 09:10:00,
2013-11-01 04:15:00,51.8,43.4,29.29,North,0,0.0,0.0,73,0.00,,BKN,0.00,VWS V14.01,2013-11-01 09:15:00,
2013-11-01 04:20:00,51.8,43.4,29.29,North,0,0.0,0.0,73,0.00,,BKN,0.00,VWS V14.01,2013-11-01 09:20:00,
2013-11-01 04:25:00,51.6,43.6,29.29,North,0,0.0,0.0,74,0.00,,BKN,0.00,VWS V14.01,2013-11-01 09:25:00,
2013-11-01 04:30:00,51.6,43.6,29.29,North,0,0.0,0.0,74,0.00,,BKN,0.00,VWS V14.01,2013-11-01 09:30:00,
2013-11-01 04:35:00,51.6,43.6,29.29,North,0,0.0,0.0,74,0.00,,BKN,0.00,VWS V14.01,2013-11-01 09:35:00,
2013-11-01 04:40:00,51.6,43.6,29.29,North,0,0.0,0.0,74,0.00,,BKN,0.00,VWS V14.01,2013-11-01 09:40:00,
2013-11-01 04:45:00,51.4,43.4,29.29,North,0,0.0,0.0,74,0.00,,BKN,0.00,VWS V14.01,2013-11-01 09:45:00,
2013-11-01 04:50:00,51.4,43.4,29.29,North,0,0.0,0.0,74,0.00,,BKN,0.00,VWS V14.01,2013-11-01 09:50:00,
2013-11-01 04:55:00,51.3,43.3,29.29,North,0,0.0,0.0,74,0.00,,BKN,0.00,VWS V14.01,2013-11-01 09:55:00,
2013-11-01 05:00:00,51.3,43.3,29.29,North,0,0.0,0.0,74,0.00,,BKN,0.00,VWS V14.01,2013-11-01 10:00:00,
2013-11-01 05:06:00,51.1,43.1,29.29,North,0,0.0,0.0,74,0.00,,BKN,0.00,VWS V14.01,2013-11-01 10:06:00,
2013-11-01 05:11:00,51.1,43.1,29.29,North,0,0.0,0.0,74,0.00,,BKN,0.00,VWS V14.01,2013-11-01 10:11:00,
2013-11-01 05:16:00,51.1,43.1,29.29,North,0,0.0,0.0,74,0.00,,BKN,0.00,VWS V14.01,2013-11-01 10:16:00,
2013-11-01 05:21:00,50.9,42.9,29.29,North,0,0.0,0.0,74,0.00,,BKN,0.00,VWS V14.01,2013-11-01 10:21:00,
2013-11-01 05:26:00,50.9,42.9,29.29,North,0,0.0,0.0,74,0.00,,BKN,0.00,VWS V14.01,2013-11-01 10:26:00,
2013-11-01 05:31:00,50.9,42.9,29.29,North,0,0.0,0.0,74,0.00,,BKN,0.00,VWS V14.01,2013-11-01 10:31:00,
2013-11-01 05:36:00,50.7,42.8,29.29,North,0,0.0,0.0,74,0.00,,BKN,0.00,VWS V14.01,2013-11-01 10:36:00,
2013-11-01 05:41:00,50.5,42.6,29.29,North,0,0.0,0.0,74,0.00,,BKN,0.00,VWS V14.01,2013-11-01 10:41:00,
2013-11-01 05:46:00,50.5,42.6,29.29,North,0,0.0,0.0,74,0.00,,BKN,0.00,VWS V14.01,2013-11-01 10:46:00,
2013-11-01 05:51:00,50.5,42.6,29.29,North,0,0.0,0.0,74,0.00,,BKN,0.00,VWS V14.01,2013-11-01 10:51:00,
2013-11-01 05:56:00,50.5,42.6,29.29,North,0,0.0,0.0,74,0.00,,BKN,0.00,VWS V14.01,2013-11-01 10:56:00,
2013-11-01 06:01:00,50.5,42.6,29.29,North,0,0.0,0.0,74,0.00,,BKN,0.00,VWS V14.01,2013-11-01 11:01:00,
2013-11-01 06:07:00,50.5,42.9,29.29,North,0,0.0,0.0,75,0.00,,BKN,0.00,VWS V14.01,2013-11-01 11:07:00,
2013-11-01 06:12:00,50.4,42.8,29.29,North,0,0.0,0.0,75,0.00,,BKN,0.00,VWS V14.01,2013-11-01 11:12:00,
2013-11-01 06:17:00,50.4,42.8,29.29,North,0,0.0,0.0,75,0.00,,BKN,0.00,VWS V14.01,2013-11-01 11:17:00,
2013-11-01 06:22:00,50.2,42.6,29.29,North,0,0.0,0.0,75,0.00,,BKN,0.00,VWS V14.01,2013-11-01 11:22:00,
2013-11-01 06:27:00,50.2,42.6,29.29,North,0,0.0,0.0,75,0.00,,BKN,0.00,VWS V14.01,2013-11-01 11:27:00,
2013-11-01 06:32:00,50.2,42.6,29.29,North,0,0.0,0.0,75,0.00,,BKN,0.00,VWS V14.01,2013-11-01 11:32:00,
2013-11-01 06:37:00,50.2,42.6,29.29,North,0,0.0,0.0,75,0.00,,BKN,0.00,VWS V14.01,2013-11-01 11:37:00,
2013-11-01 06:42:00,50.2,42.6,29.29,North,0,0.0,0.0,75,0.00,,BKN,0.00,VWS V14.01,2013-11-01 11:42:00,
2013-11-01 06:47:00,50.2,42.6,29.29,North,0,0.0,0.0,75,0.00,,BKN,0.00,VWS V14.01,2013-11-01 11:47:00,
2013-11-01 06:52:00,50.2,42.6,29.29,North,0,0.0,0.0,75,0.00,,BKN,0.00,VWS V14.01,2013-11-01 11:52:00,
2013-11-01 06:57:00,50.0,42.4,29.29,North,0,0.0,0.0,75,0.00,,BKN,0.00,VWS V14.01,2013-11-01 11:57:00,
2013-11-01 07:02:00,50.0,42.4,29.29,North,0,0.0,0.0,75,0.00,,BKN,0.00,VWS V14.01,2013-11-01 12:02:00,
2013-11-01 07:08:00,50.0,42.4,29.29,North,0,0.0,0.0,75,0.00,,BKN,0.00,VWS V14.01,2013-11-01 12:08:00,
2013-11-01 07:13:00,50.0,42.4,29.29,North,0,0.0,0.0,75,0.00,,BKN,0.00,VWS V14.01,2013-11-01 12:13:00,
2013-11-01 07:18:00,50.0,42.4,29.29,North,0,0.0,0.0,75,0.00,,BKN,0.00,VWS V14.01,2013-11-01 12:18:00,
2013-11-01 07:23:00,49.8,42.6,29.29,North,0,0.0,0.0,76,0.00,,BKN,0.00,VWS V14.01,2013-11-01 12:23:00,
2013-11-01 07:28:00,49.8,42.6,29.29,North,0,0.0,0.0,76,0.00,,BKN,0.00,VWS V14.01,2013-11-01 12:28:00,
2013-11-01 07:33:00,49.8,42.6,29.29,North,0,0.0,0.0,76,0.00,,BKN,0.00,VWS V14.01,2013-11-01 12:33:00,
2013-11-01 07:38:00,49.8,42.6,29.32,North,0,0.0,0.0,76,0.00,,BKN,0.00,VWS V14.01,2013-11-01 12:38:00,
2013-11-01 07:43:00,49.8,42.6,29.32,North,0,0.0,0.0,76,0.00,,BKN,0.00,VWS V14.01,2013-11-01 12:43:00,
2013-11-01 07:48:00,49.8,42.6,29.32,North,0,0.0,0.0,76,0.00,,BKN,0.00,VWS V14.01,2013-11-01 12:48:00,
2013-11-01 07:53:00,49.8,42.6,29.32,North,0,0.0,0.0,76,0.00,,BKN,0.00,VWS V14.01,2013-11-01 12:53:00,
2013-11-01 07:59:00,49.8,42.6,29.32,North,0,0.0,0.0,76,0.00,,BKN,0.00,VWS V14.01,2013-11-01 12:59:00,
2013-11-01 08:04:00,50.0,42.7,29.32,North,0,0.0,0.0,76,0.00,,BKN,0.00,VWS V14.01,2013-11-01 13:04:00,
2013-11-01 08:09:00,50.0,42.7,29.32,North,0,0.0,0.0,76,0.00,,BKN,0.00,VWS V14.01,2013-11-01 13:09:00,
2013-11-01 08:14:00,50.2,42.9,29.32,North,0,0.0,0.0,76,0.00,,BKN,0.00,VWS V14.01,2013-11-01 13:14:00,
2013-11-01 08:19:00,50.2,42.9,29.32,North,0,0.0,0.0,76,0.00,,BKN,0.00,VWS V14.01,2013-11-01 13:19:00,
2013-11-01 08:24:00,50.4,43.4,29.32,North,0,0.0,0.0,77,0.00,,BKN,0.00,VWS V14.01,2013-11-01 13:24:00,
2013-11-01 08:29:00,50.5,43.6,29.32,North,0,0.0,0.0,77,0.00,,BKN,0.00,VWS V14.01,2013-11-01 13:29:00,
2013-11-01 08:35:00,50.7,43.8,29.32,North,0,0.0,0.0,77,0.00,,BKN,0.00,VWS V14.01,2013-11-01 13:35:00,
2013-11-01 08:40:00,51.1,44.5,29.32,North,0,0.0,0.0,78,0.00,,BKN,0.00,VWS V14.01,2013-11-01 13:40:00,
2013-11-01 08:45:00,51.3,44.6,29.32,North,0,0.0,0.0,78,0.00,,BKN,0.00,VWS V14.01,2013-11-01 13:45:00,
2013-11-01 08:50:00,51.6,45.0,29.32,North,0,0.0,0.0,78,0.00,,BKN,0.00,VWS V14.01,2013-11-01 13:50:00,
2013-11-01 08:55:00,52.0,45.7,29.32,North,0,0.0,0.0,79,0.00,,BKN,0.00,VWS V14.01,2013-11-01 13:55:00,
2013-11-01 09:00:00,52.5,46.2,29.32,North,0,0.0,0.0,79,0.00,,BKN,0.00,VWS V14.01,2013-11-01 14:00:00,
2013-11-01 09:05:00,53.1,47.1,29.32,North,0,0.0,0.0,80,0.00,,BKN,0.00,VWS V14.01,2013-11-01 14:05:00,
2013-11-01 09:10:00,53.4,47.4,29.32,North,0,0.0,0.0,80,0.00,,BKN,0.00,VWS V14.01,2013-11-01 14:10:00,
2013-11-01 09:15:00,54.1,48.5,29.32,North,0,0.0,0.0,81,0.00,,BKN,0.00,VWS V14.01,2013-11-01 14:15:00,
2013-11-01 09:20:00,54.9,49.2,29.32,North,0,0.0,0.0,81,0.00,,BKN,0.00,VWS V14.01,2013-11-01 14:20:00,
2013-11-01 09:26:00,55.6,49.8,29.32,North,0,0.0,0.0,81,0.00,,BKN,0.00,VWS V14.01,2013-11-01 14:26:00,
2013-11-01 09:31:00,56.3,50.2,29.32,North,0,0.0,0.0,80,0.00,,BKN,0.00,VWS V14.01,2013-11-01 14:31:00,
2013-11-01 09:36:00,57.0,50.6,29.32,North,0,0.0,0.0,79,0.00,,BKN,0.00,VWS V14.01,2013-11-01 14:36:00,
2013-11-01 09:41:00,57.7,48.0,29.32,North,0,0.0,0.0,70,0.00,,BKN,0.00,VWS V14.01,2013-11-01 14:41:00,
2013-11-01 09:46:00,58.5,47.6,29.32,North,0,0.0,0.0,67,0.00,,BKN,0.00,VWS V14.01,2013-11-01 14:46:00,
2013-11-01 09:51:00,59.0,48.1,29.32,North,0,0.0,0.0,67,0.00,,BKN,0.00,VWS V14.01,2013-11-01 14:51:00,
2013-11-01 09:56:00,59.5,48.2,29.32,North,0,0.0,0.0,66,0.00,,BKN,0.00,VWS V14.01,2013-11-01 14:56:00,
2013-11-01 10:02:00,60.1,48.3,29.32,North,0,0.0,0.0,65,0.00,,BKN,0.00,VWS V14.01,2013-11-01 15:02:00,
2013-11-01 10:07:00,60.6,47.5,29.35,North,0,0.0,0.0,62,0.00,,BKN,0.00,VWS V14.01,2013-11-01 15:07:00,
2013-11-01 10:12:00,61.0,47.9,29.35,North,0,0.0,0.0,62,0.00,,BKN,0.00,VWS V14.01,2013-11-01 15:12:00,
2013-11-01 10:17:00,61.7,47.2,29.35,North,0,0.0,0.0,59,0.00,,BKN,0.00,VWS V14.01,2013-11-01 15:17:00,
2013-11-01 10:22:00,62.2,45.4,29.32,North,0,0.0,0.0,54,0.00,,BKN,0.00,VWS V14.01,2013-11-01 15:22:00,
2013-11-01 10:27:00,63.0,45.6,29.32,North,0,0.0,0.0,53,0.00,,BKN,0.00,VWS V14.01,2013-11-01 15:27:00,
2013-11-01 10:32:00,63.5,45.1,29.32,North,0,0.0,0.0,51,0.00,,BKN,0.00,VWS V14.01,2013-11-01 15:32:00,
2013-11-01 10:38:00,64.2,43.6,29.32,North,0,0.0,0.0,47,0.00,,BKN,0.00,VWS V14.01,2013-11-01 15:38:00,
2013-11-01 10:43:00,65.1,42.7,29.32,North,0,0.0,0.0,44,0.00,,BKN,0.00,VWS V14.01,2013-11-01 15:43:00,
2013-11-01 10:48:00,65.7,41.3,29.32,North,0,0.0,0.0,41,0.00,,BKN,0.00,VWS V14.01,2013-11-01 15:48:00,
2013-11-01 10:53:00,66.0,41.7,29.32,North,0,0.0,0.0,41,0.00,,BKN,0.00,VWS V14.01,2013-11-01 15:53:00,
2013-11-01 10:58:00,66.4,40.7,29.32,North,0,0.0,0.0,39,0.00,,BKN,0.00,VWS V14.01,2013-11-01 15:58:00,
2013-11-01 11:03:00,66.6,40.9,29.32,North,0,0.0,0.0,39,0.00,,BKN,0.00,VWS V14.01,2013-11-01 16:03:00,
2013-11-01 11:08:00,66.7,41.7,29.32,North,0,0.0,0.0,40,0.00,,BKN,0.00,VWS V14.01,2013-11-01 16:08:00,
2013-11-01 11:13:00,67.3,43.4,29.32,North,0,0.0,0.0,42,0.00,,BKN,0.00,VWS V14.01,2013-11-01 16:13:00,
2013-11-01 11:18:00,67.6,42.5,29.32,North,0,0.0,0.0,40,0.00,,BKN,0.00,VWS V14.01,2013-11-01 16:18:00,
2013-11-01 11:23:00,67.8,43.3,29.32,North,0,0.0,0.0,41,0.00,,BKN,0.00,VWS V14.01,2013-11-01 16:23:00,
2013-11-01 11:28:00,68.2,41.6,29.32,North,0,0.0,0.0,38,0.00,,BKN,0.00,VWS V14.01,2013-11-01 16:28:00,
2013-11-01 11:33:00,68.4,41.8,29.32,North,0,0.0,0.0,38,0.00,,BKN,0.00,VWS V14.01,2013-11-01 16:33:00,
2013-11-01 11:38:00,68.7,42.1,29.32,North,0,0.0,0.0,38,0.00,,BKN,0.00,VWS V14.01,2013-11-01 16:38:00,
2013-11-01 11:44:00,68.5,42.0,29.32,North,0,0.0,0.0,38,0.00,,BKN,0.00,VWS V14.01,2013-11-01 16:44:00,
2013-11-01 11:49:00,69.3,41.9,29.32,North,0,0.0,0.0,37,0.00,,BKN,0.00,VWS V14.01,2013-11-01 16:49:00,
2013-11-01 11:54:00,69.4,42.1,29.32,North,0,0.0,0.0,37,0.00,,BKN,0.00,VWS V14.01,2013-11-01 16:54:00,
2013-11-01 11:59:00,69.6,42.9,29.32,North,0,0.0,0.0,38,0.00,,BKN,0.00,VWS V14.01,2013-11-01 16:59:00,
2013-11-01 12:04:00,69.6,43.6,29.32,North,0,0.0,0.0,39,0.00,,BKN,0.00,VWS V14.01,2013-11-01 17:04:00,
2013-11-01 12:09:00,70.0,42.5,29.32,North,0,0.0,0.0,37,0.00,,BKN,0.00,VWS V14.01,2013-11-01 17:09:00,
2013-11-01 12:14:00,70.0,41.8,29.32,North,0,0.0,0.0,36,0.00,,BKN,0.00,VWS V14.01,2013-11-01 17:14:00,
2013-11-01 12:19:00,70.7,43.2,29.32,North,0,0.0,0.0,37,0.00,,BKN,0.00,VWS V14.01,2013-11-01 17:19:00,
2013-11-01 12:24:00,70.9,42.6,29.29,North,0,0.0,0.0,36,0.00,,BKN,0.00,VWS V14.01,2013-11-01 17:24:00,
2013-11-01 12:29:00,71.1,42.8,29.29,North,0,0.0,0.0,36,0.00,,BKN,0.00,VWS V14.01,2013-11-01 17:29:00,
2013-11-01 12:34:00,71.4,43.8,29.29,North,0,0.0,0.0,37,0.00,,BKN,0.00,VWS V14.01,2013-11-01 17:34:00,
2013-11-01 12:39:00,71.8,42.7,29.29,North,0,0.0,0.0,35,0.00,,BKN,0.00,VWS V14.01,2013-11-01 17:39:00,
2013-11-01 12:44:00,71.8,42.7,29.29,North,0,0.0,0.0,35,0.00,,BKN,0.00,VWS V14.01,2013-11-01 17:44:00,
2013-11-01 12:49:00,72.0,42.8,29.29,North,0,0.0,0.0,35,0.00,,BKN,0.00,VWS V14.01,2013-11-01 17:49:00,
2013-11-01 12:54:00,72.0,43.6,29.29,North,0,0.0,0.0,36,0.00,,BKN,0.00,VWS V14.01,2013-11-01 17:54:00,
2013-11-01 13:00:00,72.3,43.2,29.29,North,0,0.0,0.0,35,0.00,,BKN,0.00,VWS V14.01,2013-11-01 18:00:00,
2013-11-01 13:05:00,72.5,43.3,29.29,North,0,0.0,0.0,35,0.00,,BKN,0.00,VWS V14.01,2013-11-01 18:05:00,
2013-11-01 13:10:00,72.7,43.5,29.29,North,0,0.0,0.0,35,0.00,,BKN,0.00,VWS V14.01,2013-11-01 18:10:00,
2013-11-01 13:15:00,72.9,44.4,29.29,North,0,0.0,0.0,36,0.00,,BKN,0.00,VWS V14.01,2013-11-01 18:15:00,
2013-11-01 13:20:00,72.9,43.6,29.29,North,0,0.0,0.0,35,0.00,,BKN,0.00,VWS V14.01,2013-11-01 18:20:00,
2013-11-01 13:25:00,73.0,43.8,29.29,North,0,0.0,0.0,35,0.00,,BKN,0.00,VWS V14.01,2013-11-01 18:25:00,
2013-11-01 13:30:00,73.0,43.8,29.29,North,0,0.0,0.0,35,0.00,,BKN,0.00,VWS V14.01,2013-11-01 18:30:00,
2013-11-01 13:35:00,73.0,43.8,29.29,North,0,0.0,0.0,35,0.00,,BKN,0.00,VWS V14.01,2013-11-01 18:35:00,
2013-11-01 13:40:00,73.2,44.0,29.29,North,0,0.0,0.0,35,0.00,,BKN,0.00,VWS V14.01,2013-11-01 18:40:00,
2013-11-01 13:45:00,73.0,43.8,29.29,North,0,0.0,0.0,35,0.00,,BKN,0.00,VWS V14.01,2013-11-01 18:45:00,
2013-11-01 13:50:00,73.2,43.2,29.26,North,0,0.0,0.0,34,0.00,,BKN,0.00,VWS V14.01,2013-11-01 18:50:00,
2013-11-01 13:55:00,73.4,44.1,29.26,North,0,0.0,0.0,35,0.00,,BKN,0.00,VWS V14.01,2013-11-01 18:55:00,
2013-11-01 14:00:00,73.6,43.5,29.26,North,0,0.0,0.0,34,0.00,,BKN,0.00,VWS V14.01,2013-11-01 19:00:00,
2013-11-01 14:06:00,73.6,43.5,29.26,North,0,0.0,0.0,34,0.00,,BKN,0.00,VWS V14.01,2013-11-01 19:06:00,
2013-11-01 14:11:00,73.6,43.5,29.26,North,0,0.0,0.0,34,0.00,,BKN,0.00,VWS V14.01,2013-11-01 19:11:00,
2013-11-01 14:16:00,73.6,43.5,29.26,North,0,0.0,0.0,34,0.00,,BKN,0.00,VWS V14.01,2013-11-01 19:16:00,
2013-11-01 14:21:00,73.6,44.3,29.26,North,0,0.0,0.0,35,0.00,,BKN,0.00,VWS V14.01,2013-11-01 19:21:00,
2013-11-01 14:26:00,73.6,44.3,29.26,North,0,0.0,0.0,35,0.00,,BKN,0.00,VWS V14.01,2013-11-01 19:26:00,
2013-11-01 14:31:00,73.6,43.5,29.26,North,0,0.0,0.0,34,0.00,,BKN,0.00,VWS V14.01,2013-11-01 19:31:00,
2013-11-01 14:36:00,73.4,42.6,29.26,North,0,0.0,0.0,33,0.00,,BKN,0.00,VWS V14.01,2013-11-01 19:36:00,
2013-11-01 14:41:00,73.6,44.3,29.26,North,0,0.0,0.0,35,0.00,,BKN,0.00,VWS V14.01,2013-11-01 19:41:00,
2013-11-01 14:46:00,73.6,43.5,29.26,North,0,0.0,0.0,34,0.00,,BKN,0.00,VWS V14.01,2013-11-01 19:46:00,
2013-11-01 14:51:00,73.4,44.1,29.26,North,0,0.0,0.0,35,0.00,,BKN,0.00,VWS V14.01,2013-11-01 19:51:00,
2013-11-01 14:56:00,73.6,44.3,29.26,North,0,0.0,0.0,35,0.00,,BKN,0.00,VWS V14.01,2013-11-01 19:56:00,
2013-11-01 15:01:00,73.6,42.7,29.26,North,0,0.0,0.0,33,0.00,,BKN,0.00,VWS V14.01,2013-11-01 20:01:00,
2013-11-01 15:07:00,73.8,43.7,29.26,North,0,0.0,0.0,34,0.00,,BKN,0.00,VWS V14.01,2013-11-01 20:07:00,
2013-11-01 15:12:00,73.9,43.0,29.26,North,0,0.0,0.0,33,0.00,,BKN,0.00,VWS V14.01,2013-11-01 20:12:00,
2013-11-01 15:17:00,73.6,41.9,29.26,North,0,0.0,0.0,32,0.00,,BKN,0.00,VWS V14.01,2013-11-01 20:17:00,
2013-11-01 15:22:00,73.4,41.8,29.26,North,0,0.0,0.0,32,0.00,,BKN,0.00,VWS V14.01,2013-11-01 20:22:00,
2013-11-01 15:27:00,73.4,41.8,29.26,North,0,0.0,0.0,32,0.00,,BKN,0.00,VWS V14.01,2013-11-01 20:27:00,
2013-11-01 15:32:00,73.6,41.9,29.26,North,0,0.0,0.0,32,0.00,,BKN,0.00,VWS V14.01,2013-11-01 20:32:00,
2013-11-01 15:37:00,73.4,42.6,29.26,North,0,0.0,0.0,33,0.00,,BKN,0.00,VWS V14.01,2013-11-01 20:37:00,
2013-11-01 15:42:00,73.8,42.1,29.26,North,0,0.0,0.0,32,0.00,,BKN,0.00,VWS V14.01,2013-11-01 20:42:00,
2013-11-01 15:48:00,73.8,42.1,29.26,North,0,0.0,0.0,32,0.00,,BKN,0.00,VWS V14.01,2013-11-01 20:48:00,
2013-11-01 15:53:00,73.9,42.2,29.26,North,0,0.0,0.0,32,0.00,,BKN,0.00,VWS V14.01,2013-11-01 20:53:00,
2013-11-01 15:58:00,73.9,42.2,29.26,North,0,0.0,0.0,32,0.00,,BKN,0.00,VWS V14.01,2013-11-01 20:58:00,
2013-11-01 16:03:00,73.9,42.2,29.26,North,0,0.0,0.0,32,0.00,,BKN,0.00,VWS V14.01,2013-11-01 21:03:00,
2013-11-01 16:08:00,73.9,42.2,29.26,North,0,0.0,0.0,32,0.00,,BKN,0.00,VWS V14.01,2013-11-01 21:08:00,
2013-11-01 16:13:00,73.6,41.9,29.26,North,0,0.0,0.0,32,0.00,,BKN,0.00,VWS V14.01,2013-11-01 21:13:00,
2013-11-01 16:18:00,73.4,42.6,29.26,North,0,0.0,0.0,33,0.00,,BKN,0.00,VWS V14.01,2013-11-01 21:18:00,
2013-11-01 16:23:00,73.0,43.0,29.26,North,0,0.0,0.0,34,0.00,,BKN,0.00,VWS V14.01,2013-11-01 21:23:00,
2013-11-01 16:28:00,72.7,43.5,29.26,North,0,0.0,0.0,35,0.00,,BKN,0.00,VWS V14.01,2013-11-01 21:28:00,
2013-11-01 16:33:00,72.5,44.1,29.26,North,0,0.0,0.0,36,0.00,,BKN,0.00,VWS V14.01,2013-11-01 21:33:00,
2013-11-01 16:39:00,72.3,43.9,29.26,North,0,0.0,0.0,36,0.00,,BKN,0.00,VWS V14.01,2013-11-01 21:39:00,
2013-11-01 16:44:00,72.0,43.6,29.26,North,0,0.0,0.0,36,0.00,,BKN,0.00,VWS V14.01,2013-11-01 21:44:00,
2013-11-01 16:49:00,72.0,43.6,29.26,North,0,0.0,0.0,36,0.00,,BKN,0.00,VWS V14.01,2013-11-01 21:49:00,
2013-11-01 16:54:00,71.6,44.0,29.29,North,0,0.0,0.0,37,0.00,,BKN,0.00,VWS V14.01,2013-11-01 21:54:00,
2013-11-01 16:59:00,71.6,44.0,29.29,North,0,0.0,0.0,37,0.00,,BKN,0.00,VWS V14.01,2013-11-01 21:59:00,
2013-11-01 17:04:00,71.6,44.0,29.29,North,0,0.0,0.0,37,0.00,,BKN,0.00,VWS V14.01,2013-11-01 22:04:00,
2013-11-01 17:09:00,71.8,44.8,29.29,North,0,0.0,0.0,38,0.00,,BKN,0.00,VWS V14.01,2013-11-01 22:09:00,
2013-11-01 17:14:00,71.8,44.1,29.29,North,0,0.0,0.0,37,0.00,,BKN,0.00,VWS V14.01,2013-11-01 22:14:00,
2013-11-01 17:20:00,71.8,41.9,29.29,North,0,0.0,0.0,34,0.00,,BKN,0.00,VWS V14.01,2013-11-01 22:20:00,
2013-11-01 17:25:00,71.6,41.8,29.29,North,0,0.0,0.0,34,0.00,,BKN,0.00,VWS V14.01,2013-11-01 22:25:00,
2013-11-01 17:30:00,71.6,41.8,29.29,North,0,0.0,0.0,34,0.00,,BKN,0.00,VWS V14.01,2013-11-01 22:30:00,
2013-11-01 17:35:00,71.4,43.1,29.29,North,0,0.0,0.0,36,0.00,,BKN,0.00,VWS V14.01,2013-11-01 22:35:00,
2013-11-01 17:40:00,71.2,42.9,29.29,North,0,0.0,0.0,36,0.00,,BKN,0.00,VWS V14.01,2013-11-01 22:40:00,
2013-11-01 17:45:00,71.2,42.9,29.29,North,0,0.0,0.0,36,0.00,,BKN,0.00,VWS V14.01,2013-11-01 22:45:00,
2013-11-01 17:50:00,71.1,43.5,29.32,North,0,0.0,0.0,37,0.00,,BKN,0.00,VWS V14.01,2013-11-01 22:50:00,
2013-11-01 17:55:00,70.9,42.6,29.32,North,0,0.0,0.0,36,0.00,,BKN,0.00,VWS V14.01,2013-11-01 22:55:00,
2013-11-01 18:00:00,70.7,42.5,29.32,North,0,0.0,0.0,36,0.00,,BKN,0.00,VWS V14.01,2013-11-01 23:00:00,
2013-11-01 18:05:00,70.5,42.3,29.32,North,0,0.0,0.0,36,0.00,,BKN,0.00,VWS V14.01,2013-11-01 23:05:00,
2013-11-01 18:10:00,70.3,41.4,29.32,North,0,0.0,0.0,35,0.00,,BKN,0.00,VWS V14.01,2013-11-01 23:10:00,
2013-11-01 18:15:00,70.3,40.7,29.32,North,0,0.0,0.0,34,0.00,,BKN,0.00,VWS V14.01,2013-11-01 23:15:00,
2013-11-01 18:21:00,69.8,40.2,29.32,North,0,0.0,0.0,34,0.00,,BKN,0.00,VWS V14.01,2013-11-01 23:21:00,
2013-11-01 18:26:00,69.4,40.6,29.32,North,0,0.0,0.0,35,0.00,,BKN,0.00,VWS V14.01,2013-11-01 23:26:00,
2013-11-01 18:31:00,69.1,41.0,29.32,North,0,0.0,0.0,36,0.00,,BKN,0.00,VWS V14.01,2013-11-01 23:31:00,
2013-11-01 18:36:00,69.1,41.0,29.32,North,0,0.0,0.0,36,0.00,,BKN,0.00,VWS V14.01,2013-11-01 23:36:00,
2013-11-01 18:41:00,69.1,41.0,29.35,North,0,0.0,0.0,36,0.00,,BKN,0.00,VWS V14.01,2013-11-01 23:41:00,
2013-11-01 18:46:00,68.9,40.9,29.35,North,0,0.0,0.0,36,0.00,,BKN,0.00,VWS V14.01,2013-11-01 23:46:00,
2013-11-01 18:51:00,68.9,41.6,29.35,North,0,0.0,0.0,37,0.00,,BKN,0.00,VWS V14.01,2013-11-01 23:51:00,
2013-11-01 18:56:00,68.7,41.4,29.35,North,0,0.0,0.0,37,0.00,,BKN,0.00,VWS V14.01,2013-11-01 23:56:00,
2013-11-01 19:02:00,68.5,41.3,29.35,North,0,0.0,0.0,37,0.00,,BKN,0.00,VWS V14.01,2013-11-02 00:02:00,
2013-11-01 19:07:00,68.5,42.0,29.35,North,0,0.0,0.0,38,0.00,,BKN,0.00,VWS V14.01,2013-11-02 00:07:00,
2013-11-01 19:12:00,68.4,41.8,29.35,North,0,0.0,0.0,38,0.00,,BKN,0.00,VWS V14.01,2013-11-02 00:12:00,
2013-11-01 19:17:00,68.4,41.8,29.35,North,0,0.0,0.0,38,0.00,,BKN,0.00,VWS V14.01,2013-11-02 00:17:00,
2013-11-01 19:22:00,68.0,42.1,29.38,North,0,0.0,0.0,39,0.00,,BKN,0.00,VWS V14.01,2013-11-02 00:22:00,
2013-11-01 19:27:00,67.8,42.0,29.38,North,0,0.0,0.0,39,0.00,,BKN,0.00,VWS V14.01,2013-11-02 00:27:00,
2013-11-01 19:32:00,67.8,42.0,29.38,North,0,0.0,0.0,39,0.00,,BKN,0.00,VWS V14.01,2013-11-02 00:32:00,
2013-11-01 19:37:00,67.1,42.0,29.38,North,0,0.0,0.0,40,0.00,,BKN,0.00,VWS V14.01,2013-11-02 00:37:00,
2013-11-01 19:43:00,66.9,42.5,29.38,North,0,0.0,0.0,41,0.00,,BKN,0.00,VWS V14.01,2013-11-02 00:43:00,
2013-11-01 19:48:00,66.6,42.8,29.38,North,0,0.0,0.0,42,0.00,,BKN,0.00,VWS V14.01,2013-11-02 00:48:00,
2013-11-01 19:53:00,66.2,43.1,29.38,North,0,0.0,0.0,43,0.00,,BKN,0.00,VWS V14.01,2013-11-02 00:53:00,
2013-11-01 19:58:00,65.8,43.3,29.38,North,0,0.0,0.0,44,0.00,,BKN,0.00,VWS V14.01,2013-11-02 00:58:00,
2013-11-01 20:03:00,65.5,43.0,29.38,North,0,0.0,0.0,44,0.00,,BKN,0.00,VWS V14.01,2013-11-02 01:03:00,
2013-11-01 20:08:00,65.3,43.4,29.41,North,0,0.0,0.0,45,0.00,,BKN,0.00,VWS V14.01,2013-11-02 01:08:00,
2013-11-01 20:13:00,65.1,43.3,29.41,North,0,0.0,0.0,45,0.00,,BKN,0.00,VWS V14.01,2013-11-02 01:13:00,
2013-11-01 20:18:00,64.9,43.7,29.41,North,0,0.0,0.0,46,0.00,,BKN,0.00,VWS V14.01,2013-11-02 01:18:00,
2013-11-01 20:23:00,64.8,43.5,29.41,North,0,0.0,0.0,46,0.00,,BKN,0.00,VWS V14.01,2013-11-02 01:23:00,
2013-11-01 20:29:00,64.8,43.5,29.41,North,0,0.0,0.0,46,0.00,,BKN,0.00,VWS V14.01,2013-11-02 01:29:00,
2013-11-01 20:34:00,64.8,43.5,29.41,North,0,0.0,0.0,46,0.00,,BKN,0.00,VWS V14.01,2013-11-02 01:34:00,
2013-11-01 20:39:00,64.8,43.5,29.41,North,0,0.0,0.0,46,0.00,,BKN,0.00,VWS V14.01,2013-11-02 01:39:00,
2013-11-01 20:44:00,64.8,43.5,29.41,North,0,0.0,0.0,46,0.00,,BKN,0.00,VWS V14.01,2013-11-02 01:44:00,
2013-11-01 20:49:00,64.9,42.5,29.41,North,0,0.0,0.0,44,0.00,,BKN,0.00,VWS V14.01,2013-11-02 01:49:00,
2013-11-01 20:54:00,65.1,42.7,29.44,North,0,0.0,0.0,44,0.00,,BKN,0.00,VWS V14.01,2013-11-02 01:54:00,
2013-11-01 20:59:00,65.3,42.2,29.44,North,0,0.0,0.0,43,0.00,,BKN,0.00,VWS V14.01,2013-11-02 01:59:00,
2013-11-01 21:04:00,65.5,42.4,29.44,North,0,0.0,0.0,43,0.00,,BKN,0.00,VWS V14.01,2013-11-02 02:04:00,
2013-11-01 21:09:00,65.8,42.7,29.44,North,0,0.0,0.0,43,0.00,,BKN,0.00,VWS V14.01,2013-11-02 02:09:00,
2013-11-01 21:15:00,65.8,42.1,29.44,North,0,0.0,0.0,42,0.00,,BKN,0.00,VWS V14.01,2013-11-02 02:15:00,
2013-11-01 21:20:00,65.7,42.0,29.44,North,0,0.0,0.0,42,0.00,,BKN,0.00,VWS V14.01,2013-11-02 02:20:00,
2013-11-01 21:25:00,65.3,41.6,29.44,North,0,0.0,0.0,42,0.00,,BKN,0.00,VWS V14.01,2013-11-02 02:25:00,
2013-11-01 21:30:00,65.1,40.9,29.44,North,0,0.0,0.0,41,0.00,,BKN,0.00,VWS V14.01,2013-11-02 02:30:00,
2013-11-01 21:35:00,64.9,41.3,29.47,North,0,0.0,0.0,42,0.00,,BKN,0.00,VWS V14.01,2013-11-02 02:35:00,
2013-11-01 21:40:00,64.8,40.5,29.47,North,0,0.0,0.0,41,0.00,,BKN,0.00,VWS V14.01,2013-11-02 02:40:00,
2013-11-01 21:45:00,64.6,41.0,29.47,North,0,0.0,0.0,42,0.00,,BKN,0.00,VWS V14.01,2013-11-02 02:45:00,
2013-11-01 21:50:00,64.4,40.8,29.47,North,0,0.0,0.0,42,0.00,,BKN,0.00,VWS V14.01,2013-11-02 02:50:00,
2013-11-01 21:55:00,64.2,41.3,29.47,North,0,0.0,0.0,43,0.00,,BKN,0.00,VWS V14.01,2013-11-02 02:55:00,
2013-11-01 22:00:00,63.9,41.0,29.47,North,0,0.0,0.0,43,0.00,,BKN,0.00,VWS V14.01,2013-11-02 03:00:00,
2013-11-01 22:05:00,63.5,41.2,29.47,North,0,0.0,0.0,44,0.00,,BKN,0.00,VWS V14.01,2013-11-02 03:05:00,
2013-11-01 22:10:00,63.1,41.5,29.47,North,0,0.0,0.0,45,0.00,,BKN,0.00,VWS V14.01,2013-11-02 03:10:00,
2013-11-01 22:15:00,63.1,40.9,29.47,North,0,0.0,0.0,44,0.00,,BKN,0.00,VWS V14.01,2013-11-02 03:15:00,
2013-11-01 22:20:00,63.3,41.1,29.50,North,0,0.0,0.0,44,0.00,,BKN,0.00,VWS V14.01,2013-11-02 03:20:00,
2013-11-01 22:26:00,63.5,40.0,29.50,North,0,0.0,0.0,42,0.00,,BKN,0.00,VWS V14.01,2013-11-02 03:26:00,
2013-11-01 22:31:00,63.9,39.1,29.50,North,0,0.0,0.0,40,0.00,,BKN,0.00,VWS V14.01,2013-11-02 03:31:00,
2013-11-01 22:36:00,64.0,38.6,29.50,North,0,0.0,0.0,39,0.00,,BKN,0.00,VWS V14.01,2013-11-02 03:36:00,
2013-11-01 22:41:00,64.0,38.6,29.50,North,0,0.0,0.0,39,0.00,,BKN,0.00,VWS V14.01,2013-11-02 03:41:00,
2013-11-01 22:46:00,64.2,38.1,29.50,North,0,0.0,0.0,38,0.00,,BKN,0.00,VWS V14.01,2013-11-02 03:46:00,
2013-11-01 22:51:00,64.2,37.4,29.50,North,0,0.0,0.0,37,0.00,,BKN,0.00,VWS V14.01,2013-11-02 03:51:00,
2013-11-01 22:56:00,64.2,37.4,29.50,North,0,0.0,0.0,37,0.00,,BKN,0.00,VWS V14.01,2013-11-02 03:56:00,
2013-11-01 23:01:00,64.0,37.3,29.50,North,0,0.0,0.0,37,0.00,,BKN,0.00,VWS V14.01,2013-11-02 04:01:00,
2013-11-01 23:03:00,64.0,37.9,29.50,North,0,0.0,0.0,38,0.00,,BKN,0.00,VWS V14.01,2013-11-02 04:03:00,
2013-11-01 23:06:00,64.0,37.3,29.53,North,0,0.0,0.0,37,0.00,,BKN,0.00,VWS V14.01,2013-11-02 04:06:00,
2013-11-01 23:11:00,63.9,37.1,29.53,North,0,0.0,0.0,37,0.00,,BKN,0.00,VWS V14.01,2013-11-02 04:11:00,
2013-11-01 23:16:00,63.7,37.0,29.53,North,0,0.0,0.0,37,0.00,,BKN,0.00,VWS V14.01,2013-11-02 04:16:00,
2013-11-01 23:21:00,63.5,37.5,29.53,North,0,0.0,0.0,38,0.00,,BKN,0.00,VWS V14.01,2013-11-02 04:21:00,
2013-11-01 23:26:00,63.3,37.3,29.53,North,0,0.0,0.0,38,0.00,,BKN,0.00,VWS V14.01,2013-11-02 04:26:00,
2013-11-01 23:31:00,63.0,37.0,29.53,North,0,0.0,0.0,38,0.00,,BKN,0.00,VWS V14.01,2013-11-02 04:31:00,
2013-11-01 23:36:00,63.0,37.0,29.53,North,0,0.0,0.0,38,0.00,,BKN,0.00,VWS V14.01,2013-11-02 04:36:00,
2013-11-01 23:42:00,62.8,37.5,29.53,North,0,0.0,0.0,39,0.00,,BKN,0.00,VWS V14.01,2013-11-02 04:42:00,
2013-11-01 23:47:00,62.6,37.3,29.53,North,0,0.0,0.0,39,0.00,,BKN,0.00,VWS V14.01,2013-11-02 04:47:00,
2013-11-01 23:52:00,62.4,37.2,29.53,North,0,0.0,0.0,39,0.00,,BKN,0.00,VWS V14.01,2013-11-02 04:52:00,
2013-11-01 23:57:00,62.2,37.6,29.53,North,0,0.0,0.0,40,0.00,,BKN,0.00,VWS V14.01,2013-11-02 04:57:00,